User: anonymous   Login
Location: Mentone
(34.5413°N, 85.5351°W)
Time: 03:40:04
(UTC-06:00)
Language:

Tiros 1 despin weight - Orbit

View from above orbital plane
View from above orbital plane
View from above satellite
View from above satellite

Ground track
Ground track

The orbit data is extracted from the following two-line orbital elements,

1 00115U 60002D   14331.15407950  .00004627  00000-0  60843-3 0  5201
2 00115 048.1661 302.9755 0036391 312.8933 111.4991 14.81226060911790
Epoch (UTC): 27 November 2014 03:41:52
Eccentricity: 0.0036391
inclination: 48.1661°
perigee height: 600 km
apogee height: 651 km
right ascension of ascending node: 302.9755°
argument of perigee: 312.8933°
revolutions per day: 14.81226060
mean anomaly at epoch: 111.4991°
orbit number at epoch: 91179

The dashed part of the orbit path shows where the satellite is in the earth's shadow,  

DLR